�������l�o���
Date,Time,MP-1(��Sv/h),MP-2(��Sv/h),MP-3(��Sv/h),MP-4(��Sv/h),MP-5(��Sv/h),MP-6(��Sv/h),MP-7(��Sv/h),MP-8(��Sv/h),����,����(m/s),���J
2018/06/24,00:00,0.879,1.239,0.857,1.550,1.080,0.479,0.827,0.787,��,2.0,��
2018/06/24,00:10,0.879,1.237,0.856,1.550,1.079,0.480,0.830,0.788,��,2.3,��
2018/06/24,00:20,0.879,1.236,0.858,1.549,1.079,0.478,0.827,0.788,��쐼,2.3,��
2018/06/24,00:30,0.879,1.238,0.856,1.551,1.079,0.480,0.830,0.789,��,1.5,��
2018/06/24,00:40,0.879,1.235,0.855,1.552,1.076,0.478,0.827,0.788,��쐼,1.2,��
2018/06/24,00:50,0.877,1.237,0.858,1.548,1.077,0.479,0.827,0.788,��쓌,1.5,��
2018/06/24,01:00,0.877,1.234,0.857,1.548,1.078,0.480,0.828,0.788,���쓌,1.2,��
2018/06/24,01:10,0.879,1.234,0.856,1.550,1.076,0.478,0.828,0.788,�k��,0.6,��
2018/06/24,01:20,0.879,1.235,0.857,1.549,1.079,0.479,0.828,0.788,�k��,0.6,��
2018/06/24,01:30,0.881,1.237,0.857,1.547,1.077,0.479,0.828,0.788,-,CALM,��
2018/06/24,01:40,0.881,1.235,0.857,1.547,1.073,0.480,0.829,0.788,�쓌,1.2,��
2018/06/24,01:50,0.880,1.233,0.857,1.548,1.078,0.478,0.827,0.786,-,CALM,��
2018/06/24,02:00,0.879,1.236,0.856,1.550,1.079,0.479,0.827,0.788,��,0.6,��
2018/06/24,02:10,0.877,1.237,0.857,1.548,1.078,0.479,0.828,0.788,�k��,0.6,��
2018/06/24,02:20,0.878,1.237,0.858,1.550,1.077,0.479,0.828,0.787,�k�k��,1.2,��
2018/06/24,02:30,0.880,1.235,0.857,1.551,1.077,0.478,0.827,0.790,�k�k��,3.2,��
2018/06/24,02:40,0.877,1.235,0.858,1.550,1.077,0.479,0.829,0.789,�k��,4.9,��
2018/06/24,02:50,0.879,1.235,0.857,1.549,1.077,0.479,0.827,0.788,�k��,5.9,��
2018/06/24,03:00,0.879,1.237,0.857,1.547,1.078,0.477,0.828,0.787,���k��,4.5,��
2018/06/24,03:10,0.879,1.234,0.857,1.550,1.078,0.477,0.828,0.787,���k��,4.6,��
2018/06/24,03:20,0.879,1.233,0.857,1.550,1.077,0.479,0.828,0.788,��,5.3,��
2018/06/24,03:30,0.878,1.232,0.856,1.548,1.077,0.478,0.829,0.788,���k��,4.7,��
2018/06/24,03:40,0.878,1.234,0.857,1.550,1.076,0.479,0.828,0.788,��,3.8,��
2018/06/24,03:50,0.878,1.235,0.857,1.549,1.076,0.478,0.828,0.788,��,2.9,��
2018/06/24,04:00,0.879,1.234,0.858,1.549,1.076,0.479,0.827,0.788,���쐼,3.4,��
2018/06/24,04:10,0.879,1.233,0.856,1.547,1.077,0.478,0.826,0.788,���쐼,2.5,��
2018/06/24,04:20,0.877,1.232,0.856,1.550,1.076,0.477,0.827,0.788,��,2.2,��
2018/06/24,04:30,0.877,1.232,0.854,1.548,1.073,0.478,0.828,0.786,�k�k��,1.2,��
2018/06/24,04:40,0.877,1.235,0.855,1.549,1.077,0.477,0.827,0.788,�k��,3.6,��
2018/06/24,04:50,0.877,1.234,0.856,1.547,1.077,0.479,0.826,0.788,���k��,2.3,��
2018/06/24,05:00,0.879,1.231,0.858,1.552,1.075,0.478,0.828,0.788,�쐼,1.9,��
2018/06/24,05:10,0.878,1.234,0.856,1.548,1.078,0.477,0.828,0.788,�쐼,1.9,��
2018/06/24,05:20,0.878,1.235,0.856,1.548,1.074,0.479,0.828,0.788,���쐼,3.5,��
2018/06/24,05:30,0.879,1.234,0.854,1.549,1.077,0.478,0.829,0.787,���쐼,4.0,��
2018/06/24,05:40,0.879,1.238,0.857,1.549,1.076,0.480,0.828,0.787,���쐼,3.5,��
2018/06/24,05:50,0.878,1.236,0.858,1.550,1.078,0.478,0.828,0.788,���쐼,2.6,��
2018/06/24,06:00,0.880,1.237,0.858,1.548,1.076,0.478,0.828,0.788,��,2.0,��
2018/06/24,06:10,0.879,1.235,0.856,1.550,1.077,0.478,0.829,0.788,��쐼,3.0,��
2018/06/24,06:20,0.879,1.236,0.857,1.550,1.077,0.476,0.828,0.787,�쐼,2.9,��
2018/06/24,06:30,0.882,1.233,0.856,1.547,1.077,0.477,0.828,0.790,��쐼,2.3,��
2018/06/24,06:40,0.882,1.233,0.855,1.550,1.078,0.478,0.831,0.788,��쐼,2.0,��
2018/06/24,06:50,0.880,1.233,0.857,1.552,1.077,0.478,0.827,0.789,�쐼,1.2,��
2018/06/24,07:00,0.881,1.234,0.856,1.553,1.079,0.478,0.828,0.789,���k��,1.2,��
2018/06/24,07:10,0.881,1.237,0.859,1.550,1.079,0.478,0.828,0.790,���k��,2.6,��
2018/06/24,07:20,0.882,1.235,0.857,1.552,1.077,0.476,0.828,0.790,���k��,1.4,��
2018/06/24,07:30,0.882,1.233,0.858,1.551,1.078,0.475,0.826,0.789,��,1.1,��
2018/06/24,07:40,0.881,1.235,0.858,1.553,1.074,0.478,0.825,0.787,��,0.8,��
2018/06/24,07:50,0.880,1.238,0.858,1.550,1.078,0.475,0.827,0.788,��,1.1,��
2018/06/24,08:00,0.883,1.238,0.859,1.554,1.078,0.477,0.828,0.788,��,1.2,��
2018/06/24,08:10,0.883,1.238,0.859,1.551,1.078,0.477,0.828,0.789,���쓌,1.5,��
2018/06/24,08:20,0.882,1.239,0.860,1.552,1.076,0.476,0.827,0.787,�쓌,1.5,��
2018/06/24,08:30,0.880,1.238,0.860,1.553,1.079,0.476,0.826,0.785,��쓌,2.0,��
2018/06/24,08:40,0.881,1.239,0.860,1.551,1.080,0.476,0.825,0.786,��,1.2,��
2018/06/24,08:50,0.880,1.238,0.862,1.552,1.082,0.476,0.828,0.786,��쓌,1.7,��
2018/06/24,09:00,0.882,1.241,0.860,1.555,1.079,0.477,0.828,0.788,��쓌,1.5,��
2018/06/24,09:10,0.880,1.239,0.859,1.552,1.081,0.477,0.828,0.786,��쓌,1.5,��
2018/06/24,09:20,0.881,1.239,0.861,1.554,1.080,0.478,0.829,0.788,��쓌,1.5,��
2018/06/24,09:30,0.883,1.241,0.860,1.555,1.082,0.476,0.829,0.787,��쓌,2.3,��
2018/06/24,09:40,0.883,1.241,0.860,1.554,1.082,0.477,0.831,0.788,��쓌,2.5,��
2018/06/24,09:50,0.885,1.241,0.862,1.554,1.084,0.478,0.829,0.788,��쓌,2.5,��
2018/06/24,10:00,0.884,1.242,0.859,1.554,1.086,0.478,0.829,0.789,��쓌,3.0,��
2018/06/24,10:10,0.885,1.244,0.860,1.557,1.083,0.478,0.829,0.787,��쓌,3.5,��
2018/06/24,10:20,0.883,1.244,0.861,1.556,1.085,0.478,0.831,0.789,�쓌,4.5,��
2018/06/24,10:30,0.884,1.246,0.862,1.560,1.086,0.480,0.830,0.788,��쓌,5.3,��
2018/06/24,10:40,0.885,1.245,0.860,1.558,1.085,0.479,0.830,0.788,��쓌,5.2,��
2018/06/24,10:50,0.884,1.249,0.862,1.556,1.088,0.479,0.830,0.789,��쓌,4.9,��
2018/06/24,11:00,0.884,1.246,0.862,1.558,1.088,0.480,0.829,0.788,��쓌,5.4,��
2018/06/24,11:10,0.889,1.248,0.864,1.557,1.086,0.480,0.832,0.787,�쓌,5.2,��
2018/06/24,11:20,0.887,1.248,0.863,1.557,1.088,0.480,0.831,0.788,�쓌,5.7,��
2018/06/24,11:30,0.888,1.252,0.864,1.557,1.090,0.481,0.832,0.790,��쓌,5.4,��
2018/06/24,11:40,0.887,1.255,0.866,1.556,1.090,0.481,0.832,0.789,��쓌,6.5,��
2018/06/24,11:50,0.889,1.251,0.866,1.557,1.090,0.479,0.833,0.789,��쓌,5.9,��
2018/06/24,12:00,0.889,1.252,0.866,1.557,1.087,0.479,0.833,0.790,��쓌,7.1,��
2018/06/24,12:10,0.888,1.257,0.867,1.559,1.090,0.481,0.831,0.789,��쓌,6.3,��
2018/06/24,12:20,0.891,1.253,0.865,1.557,1.092,0.481,0.833,0.790,��쓌,6.6,��
2018/06/24,12:30,0.889,1.255,0.866,1.560,1.094,0.480,0.832,0.789,��쓌,8.4,��
2018/06/24,12:40,0.889,1.255,0.866,1.559,1.093,0.481,0.832,0.790,��쓌,10.0,��
2018/06/24,12:50,0.889,1.255,0.867,1.560,1.092,0.481,0.831,0.789,��쓌,9.2,��
2018/06/24,13:00,0.888,1.256,0.868,1.560,1.092,0.481,0.831,0.789,��,9.9,��
2018/06/24,13:10,0.890,1.256,0.867,1.561,1.093,0.482,0.832,0.790,��,8.3,��
2018/06/24,13:20,0.889,1.254,0.867,1.562,1.094,0.483,0.831,0.790,��쓌,10.2,��
2018/06/24,13:30,0.890,1.255,0.869,1.560,1.093,0.482,0.831,0.790,��쓌,10.6,��
2018/06/24,13:40,0.889,1.254,0.867,1.564,1.094,0.482,0.833,0.789,��쓌,11.1,��
2018/06/24,13:50,0.889,1.257,0.869,1.565,1.096,0.484,0.831,0.790,��,10.7,��
2018/06/24,14:00,0.890,1.257,0.868,1.562,1.096,0.483,0.832,0.790,��쓌,9.9,��
2018/06/24,14:10,0.887,1.255,0.868,1.563,1.094,0.483,0.831,0.791,��,9.6,��
2018/06/24,14:20,0.890,1.256,0.866,1.565,1.097,0.482,0.833,0.791,��쓌,8.8,��
2018/06/24,14:30,0.887,1.257,0.866,1.564,1.095,0.483,0.832,0.789,��쓌,7.9,��
2018/06/24,14:40,0.891,1.262,0.868,1.565,1.096,0.483,0.834,0.791,��,8.8,��
2018/06/24,14:50,0.891,1.258,0.867,1.565,1.097,0.483,0.833,0.791,��,7.2,��
2018/06/24,15:00,0.891,1.258,0.868,1.564,1.098,0.483,0.833,0.790,��,7.6,��
2018/06/24,15:10,0.890,1.257,0.869,1.566,1.095,0.483,0.831,0.790,��,8.8,��
2018/06/24,15:20,0.889,1.257,0.868,1.565,1.096,0.483,0.833,0.791,��,7.6,��
2018/06/24,15:30,0.889,1.257,0.869,1.569,1.096,0.484,0.830,0.792,��,4.9,��
2018/06/24,15:40,0.892,1.258,0.869,1.565,1.097,0.483,0.833,0.790,��,7.0,��
2018/06/24,15:50,0.893,1.258,0.868,1.564,1.095,0.482,0.833,0.792,��,7.2,��
2018/06/24,16:00,0.892,1.257,0.870,1.565,1.094,0.483,0.834,0.791,��,6.1,��
2018/06/24,16:10,0.891,1.258,0.868,1.570,1.099,0.481,0.830,0.790,��,6.3,��
2018/06/24,16:20,0.892,1.259,0.868,1.564,1.097,0.481,0.832,0.791,��,6.5,��
2018/06/24,16:30,0.890,1.261,0.870,1.567,1.095,0.481,0.833,0.790,��,5.1,��
2018/06/24,16:40,0.890,1.261,0.867,1.567,1.098,0.481,0.834,0.792,��,5.0,��
2018/06/24,16:50,0.891,1.262,0.869,1.570,1.097,0.481,0.832,0.791,��,5.3,��
2018/06/24,17:00,0.889,1.259,0.869,1.566,1.098,0.484,0.833,0.791,��,6.3,��
2018/06/24,17:10,0.890,1.261,0.870,1.566,1.098,0.482,0.834,0.789,��,8.6,��
2018/06/24,17:20,0.893,1.260,0.870,1.567,1.100,0.481,0.833,0.791,��,8.4,��
2018/06/24,17:30,0.892,1.260,0.869,1.566,1.101,0.483,0.833,0.789,��,9.1,��
2018/06/24,17:40,0.890,1.260,0.868,1.566,1.102,0.481,0.834,0.791,��,9.5,��
2018/06/24,17:50,0.893,1.258,0.869,1.565,1.099,0.483,0.832,0.794,��,8.3,��
2018/06/24,18:00,0.890,1.258,0.870,1.568,1.102,0.483,0.832,0.792,��,7.9,��
2018/06/24,18:10,0.891,1.258,0.873,1.567,1.100,0.483,0.834,0.793,��,6.4,��
2018/06/24,18:20,0.889,1.257,0.871,1.565,1.100,0.483,0.833,0.792,��,5.9,��
2018/06/24,18:30,0.889,1.258,0.871,1.563,1.100,0.481,0.832,0.793,��,5.9,��
2018/06/24,18:40,0.889,1.263,0.871,1.566,1.100,0.484,0.830,0.792,��쐼,5.9,��
2018/06/24,18:50,0.891,1.263,0.872,1.566,1.099,0.481,0.831,0.792,��쐼,5.3,��
2018/06/24,19:00,0.889,1.260,0.870,1.566,1.099,0.484,0.831,0.793,��쐼,5.3,��
2018/06/24,19:10,0.892,1.260,0.870,1.564,1.098,0.483,0.831,0.792,��쐼,4.5,��
2018/06/24,19:20,0.892,1.261,0.871,1.567,1.098,0.483,0.832,0.792,�쐼,3.7,��
2018/06/24,19:30,0.893,1.260,0.871,1.565,1.099,0.482,0.834,0.792,�쐼,3.5,��
2018/06/24,19:40,0.892,1.258,0.872,1.570,1.099,0.483,0.833,0.792,��,3.5,��
2018/06/24,19:50,0.893,1.258,0.873,1.568,1.099,0.483,0.834,0.792,��,4.0,��
2018/06/24,20:00,0.893,1.260,0.870,1.568,1.097,0.484,0.831,0.792,���k��,5.4,��
2018/06/24,20:10,0.892,1.259,0.871,1.567,1.099,0.483,0.833,0.792,���k��,4.5,��
2018/06/24,20:20,0.892,1.259,0.871,1.570,1.099,0.485,0.833,0.794,���k��,3.9,��
2018/06/24,20:30,0.892,1.257,0.872,1.568,1.100,0.483,0.833,0.793,���k��,7.7,��
2018/06/24,20:40,0.893,1.260,0.871,1.570,1.100,0.483,0.834,0.791,���k��,8.0,��
2018/06/24,20:50,0.895,1.259,0.872,1.572,1.098,0.485,0.833,0.793,���k��,5.8,��
2018/06/24,21:00,0.894,1.259,0.872,1.573,1.098,0.484,0.833,0.792,���k��,4.9,��
2018/06/24,21:10,0.892,1.257,0.873,1.569,1.100,0.482,0.836,0.794,�k��,2.6,��
2018/06/24,21:20,0.892,1.259,0.870,1.569,1.098,0.484,0.835,0.795,�k�k��,2.6,��
2018/06/24,21:30,0.894,1.260,0.873,1.569,1.095,0.483,0.834,0.793,�k�k��,3.0,��
2018/06/24,21:40,0.892,1.256,0.871,1.569,1.098,0.481,0.833,0.792,�k�k��,3.6,��
2018/06/24,21:50,0.894,1.259,0.871,1.570,1.096,0.483,0.833,0.793,�k�k��,3.9,��
2018/06/24,22:00,0.895,1.257,0.871,1.571,1.098,0.482,0.834,0.793,�k�k��,4.4,��
2018/06/24,22:10,0.893,1.258,0.871,1.570,1.098,0.481,0.832,0.790,�k��,4.4,��
2018/06/24,22:20,0.894,1.255,0.871,1.569,1.098,0.482,0.832,0.793,�k��,4.6,��
2018/06/24,22:30,0.895,1.259,0.871,1.569,1.098,0.482,0.834,0.792,�k��,4.9,��
2018/06/24,22:40,0.894,1.256,0.872,1.568,1.095,0.482,0.835,0.792,�k��,3.5,��
2018/06/24,22:50,0.892,1.257,0.871,1.571,1.097,0.483,0.833,0.792,���k��,2.6,��
2018/06/24,23:00,0.896,1.257,0.872,1.571,1.094,0.482,0.831,0.794,��,1.2,��
2018/06/24,23:10,0.894,1.256,0.870,1.570,1.096,0.482,0.833,0.792,�k�k��,0.6,��
2018/06/24,23:20,0.894,1.256,0.870,1.570,1.097,0.481,0.832,0.793,���쓌,0.9,��
2018/06/24,23:30,0.894,1.257,0.871,1.570,1.098,0.483,0.833,0.793,��,1.7,��
2018/06/24,23:40,0.892,1.257,0.872,1.574,1.097,0.482,0.834,0.792,��,3.0,��
2018/06/24,23:50,0.893,1.257,0.871,1.571,1.096,0.482,0.834,0.794,��쐼,2.2,��
